| time (UTC) | temp C | wind direction | speed KPH | gust KPH | rain 1hr cm | rain 24hr cm | rain mn cm | humidity % | barometer mb |
| 20260505040304 | 13 | 161 | 6.4 | 14.5 | 0.00 | 0.00 | 0.00 | 60 | 1007.3 |
| 20260505034804 | 14 | 164 | 6.4 | 12.9 | 0.00 | 0.00 | 0.00 | 59 | 1007.2 |
| 20260505033304 | 15 | 198 | 4.8 | 11.3 | 0.00 | 0.00 | 0.00 | 58 | 1007.1 |
| 20260505030805 | 15 | 154 | 4.8 | 14.5 | 0.00 | 0.00 | 0.00 | 57 | 1007.1 |
| 20260505030304 | 15 | 210 | 4.8 | 14.5 | 0.00 | 0.00 | 0.00 | 55 | 1007.1 |
| 20260505025804 | 15 | 167 | 6.4 | 12.9 | 0.00 | 0.00 | 0.00 | 55 | 1007.1 |
| 20260505025305 | 15 | 146 | 4.8 | 16.1 | 0.00 | 0.00 | 0.00 | 54 | 1007.1 |
| 20260505024804 | 15 | 179 | 8.0 | 32.2 | 0.00 | 0.00 | 0.00 | 54 | 1007.1 |
| 20260505023304 | 15 | 159 | 8.0 | 16.1 | 0.00 | 0.00 | 0.00 | 52 | 1007.1 |
| 20260505022804 | 15 | 186 | 4.8 | 24.1 | 0.00 | 0.00 | 0.00 | 52 | 1007.1 |
| 20260505022304 | 15 | 153 | 6.4 | 24.1 | 0.00 | 0.00 | 0.00 | 52 | 1007.2 |
| 20260505021803 | 15 | 173 | 8.0 | 19.3 | 0.00 | 0.00 | 0.00 | 52 | 1007.2 |
| 20260505021305 | 15 | 161 | 8.0 | 19.3 | 0.00 | 0.00 | 0.00 | 51 | 1007.2 |
| 20260505015803 | 16 | 194 | 6.4 | 16.1 | 0.00 | 0.00 | 0.00 | 50 | 1007.0 |
| 20260505015304 | 16 | 169 | 6.4 | 19.3 | 0.00 | 0.00 | 0.00 | 49 | 1006.9 |
| 20260505014804 | 16 | 175 | 4.8 | 22.5 | 0.00 | 0.00 | 0.00 | 49 | 1007.0 |
| 20260505014304 | 16 | 180 | 9.7 | 19.3 | 0.00 | 0.00 | 0.00 | 49 | 1007.0 |
| 20260505013804 | 16 | 202 | 11.3 | 29.0 | 0.00 | 0.00 | 0.00 | 49 | 1006.9 |
| 20260505013304 | 16 | 182 | 8.0 | 22.5 | 0.00 | 0.00 | 0.00 | 49 | 1006.8 |
| 20260505012305 | 16 | 155 | 6.4 | 22.5 | 0.00 | 0.00 | 0.00 | 49 | 1006.8 |
| 20260505011304 | 17 | 173 | 6.4 | 14.5 | 0.00 | 0.00 | 0.00 | 48 | 1006.5 |
| 20260505010305 | 17 | 149 | 6.4 | 12.9 | 0.00 | 0.00 | 0.00 | 47 | 1006.3 |
| 20260505005304 | 17 | 167 | 4.8 | 19.3 | 0.00 | 0.00 | 0.00 | 47 | 1006.1 |
| 20260505004804 | 17 | 155 | 8.0 | 19.3 | 0.00 | 0.00 | 0.00 | 47 | 1006.0 |
| 20260505004304 | 17 | 178 | 4.8 | 24.1 | 0.00 | 0.00 | 0.00 | 46 | 1005.9 |
| 20260505002304 | 17 | 146 | 4.8 | 12.9 | 0.00 | 0.00 | 0.00 | 45 | 1005.3 |
| 20260505001804 | 18 | 231 | 4.8 | 24.1 | 0.00 | 0.00 | 0.00 | 45 | 1005.2 |
| 20260505000304 | 18 | 161 | 4.8 | 22.5 | 0.00 | 0.00 | 0.00 | 45 | 1004.9 |
| 20260504234804 | 18 | 175 | 14.5 | 29.0 | 0.00 | 0.00 | 0.00 | 43 | 1004.5 |
| 20260504234304 | 19 | 188 | 9.7 | 22.5 | 0.00 | 0.00 | 0.00 | 42 | 1004.4 |
| 20260504233804 | 19 | 153 | 4.8 | 19.3 | 0.00 | 0.00 | 0.00 | 41 | 1004.3 |
| 20260504231804 | 20 | 185 | 8.0 | 29.0 | 0.00 | 0.00 | 0.00 | 39 | 1004.0 |
| 20260504231304 | 20 | 176 | 16.1 | 37.0 | 0.00 | 0.00 | 0.00 | 38 | 1003.9 |
| 20260504230304 | 20 | 163 | 8.0 | 16.1 | 0.00 | 0.00 | 0.00 | 37 | 1003.6 |
| 20260504225304 | 21 | 154 | 8.0 | 19.3 | 0.00 | 0.00 | 0.00 | 34 | 1003.3 |
| 20260504224804 | 21 | 170 | 3.2 | 14.5 | 0.00 | 0.00 | 0.00 | 33 | 1003.3 |
| 20260504224303 | 21 | 147 | 3.2 | 11.3 | 0.00 | 0.00 | 0.00 | 34 | 1003.2 |
| 20260504220804 | 22 | 170 | 3.2 | 9.7 | 0.00 | 0.00 | 0.00 | 32 | 1003.1 |
| 20260504215305 | 22 | 299 | 6.4 | 14.5 | 0.00 | 0.00 | 0.00 | 34 | 1003.1 |
| 20260504213804 | 22 | 126 | 4.8 | 12.9 | 0.00 | 0.00 | 0.00 | 32 | 1003.1 |
| 20260504213304 | 22 | 237 | 3.2 | 11.3 | 0.00 | 0.00 | 0.00 | 31 | 1003.1 |
| 20260504212803 | 22 | 209 | 3.2 | 14.5 | 0.00 | 0.00 | 0.00 | 32 | 1003.1 |
| 20260504211804 | 22 | 188 | 8.0 | 22.5 | 0.00 | 0.00 | 0.00 | 32 | 1003.2 |
| 20260504211304 | 23 | 192 | 6.4 | 14.5 | 0.00 | 0.00 | 0.00 | 30 | 1003.2 |
| 20260504210804 | 23 | 150 | 4.8 | 14.5 | 0.00 | 0.00 | 0.00 | 31 | 1003.2 |
| 20260504210304 | 23 | 266 | 4.8 | 11.3 | 0.00 | 0.00 | 0.00 | 31 | 1003.2 |
| 20260504205804 | 23 | 222 | 3.2 | 14.5 | 0.00 | 0.00 | 0.00 | 30 | 1003.2 |
| 20260504204804 | 23 | 249 | 8.0 | 24.1 | 0.00 | 0.00 | 0.00 | 30 | 1003.3 |
| 20260504204304 | 23 | 254 | 3.2 | 9.7 | 0.00 | 0.00 | 0.00 | 31 | 1003.2 |
| 20260504203804 | 23 | 205 | 6.4 | 16.1 | 0.00 | 0.00 | 0.00 | 30 | 1003.2 |
| 20260504203303 | 23 | 207 | 8.0 | 19.3 | 0.00 | 0.00 | 0.00 | 32 | 1003.2 |
| 20260504202305 | 23 | 194 | 4.8 | 16.1 | 0.00 | 0.00 | 0.00 | 29 | 1003.3 |
| 20260504201804 | 23 | 170 | 8.0 | 19.3 | 0.00 | 0.00 | 0.00 | 28 | 1003.3 |
| 20260504201304 | 23 | 210 | 4.8 | 19.3 | 0.00 | 0.00 | 0.00 | 30 | 1003.3 |
| 20260504200804 | 23 | 191 | 9.7 | 25.7 | 0.00 | 0.00 | 0.00 | 30 | 1003.3 |
| 20260504195804 | 23 | 131 | 4.8 | 11.3 | 0.00 | 0.00 | 0.00 | 30 | 1003.4 |
| 20260504192804 | 23 | 247 | 8.0 | 27.4 | 0.00 | 0.00 | 0.00 | 29 | 1003.4 |
| 20260504192304 | 23 | 192 | 12.9 | 29.0 | 0.00 | 0.00 | 0.00 | 29 | 1003.4 |
| 20260504190804 | 23 | 175 | 4.8 | 27.4 | 0.00 | 0.00 | 0.00 | 29 | 1003.6 |
| 20260504185305 | 23 | 184 | 4.8 | 19.3 | 0.00 | 0.00 | 0.00 | 33 | 1003.8 |
| 20260504183304 | 23 | 179 | 8.0 | 24.1 | 0.00 | 0.00 | 0.00 | 30 | 1003.8 |
| 20260504182304 | 23 | 233 | 8.0 | 20.9 | 0.00 | 0.00 | 0.00 | 28 | 1003.8 |
| 20260504181804 | 23 | 176 | 4.8 | 11.3 | 0.00 | 0.00 | 0.00 | 30 | 1003.9 |
| 20260504180806 | 23 | 218 | 8.0 | 25.7 | 0.00 | 0.00 | 0.00 | 30 | 1004.1 |
| 20260504180306 | 23 | 192 | 8.0 | 19.3 | 0.00 | 0.00 | 0.00 | 32 | 1003.9 |
| 20260504175806 | 23 | 129 | 6.4 | 16.1 | 0.00 | 0.00 | 0.00 | 32 | 1004.1 |
| 20260504175306 | 22 | 229 | 4.8 | 19.3 | 0.00 | 0.00 | 0.00 | 33 | 1004.3 |
| 20260504172305 | 22 | 203 | 4.8 | 20.9 | 0.00 | 0.00 | 0.00 | 32 | 1004.5 |
| 20260504171806 | 22 | 199 | 4.8 | 19.3 | 0.00 | 0.00 | 0.00 | 35 | 1004.4 |
| 20260504170805 | 21 | 202 | 8.0 | 19.3 | 0.00 | 0.00 | 0.00 | 33 | 1004.4 |
| 20260504170305 | 22 | 305 | 17.7 | 45.1 | 0.00 | 0.00 | 0.00 | 35 | 1004.5 |
| 20260504140805 | 18 | 137 | 3.2 | 9.7 | 0.00 | 0.00 | 0.00 | 40 | 1006.2 |
| 20260504110306 | 8 | 158 | 3.2 | 4.8 | 0.00 | 0.00 | 0.00 | 60 | 1007.5 |
| 20260504100306 | 8 | 134 | 1.6 | 3.2 | 0.00 | 0.00 | 0.00 | 60 | 1007.6 |
| 20260504081806 | 7 | 158 | 1.6 | 3.2 | 0.00 | 0.00 | 0.00 | 63 | 1007.3 |
| 20260504050306 | 2 | 159 | 0.0 | 0.0 | 0.00 | 0.00 | 0.00 | 80 | 1007.3 |